Temp
20 20 21 22 22 22 23 23 24 24 25 25 25 25 26 26 27 27 26 27 27 26 25 23 23 24 26 27 27 26 23 31 31 30 30 31 30 29 29 29 29 28 27 25 25
20 20 21 21 22 22 23 23 24 25 25 25 25 26 26 27 27 27 28 27 27 26 23 24 24 25 23 23 26 29 32 32 33 32 32 31 30 30 30 29 28 27 26 25 25
20 20 21 21 22 22 23 23 24 25 25 26 26 26 27 27 27 29 29 28 27 26 24 24 24 21 18 22 34 34 32 33 33 33 32 31 31 31 30 29 28 26 25 25 25
20 20 21 21 22 23 23 24 24 25 26 26 26 27 27 27 31 30 29 28 27 27 23 22 20 20 25 31 30 33 33 33 32 32 32 32 31 31 30 29 27 26 26 25 26
19 20 21 21 22 23 23 24 25 25 26 26 27 27 27 27 31 30 30 29 28 27 26 25 24 24 31 29 30 34 33 32 32 32 32 32 31 31 30 29 27 26 26 26 27
19 20 21 21 22 22 23 24 25 26 26 27 27 27 27 31 29 30 30 29 27 28 32 33 33 33 32 32 33 31 33 33 33 32 32 32 31 31 30 29 27 27 27 27 27
19 20 20 21 22 23 23 24 25 26 26 27 27 28 27 31 29 31 30 29 28 31 32 33 32 33 34 32 30 31 26 33 33 33 31 27 32 31 30 29 28 28 28 28 27
19 20 21 21 22 23 24 24 25 26 26 27 27 27 29 31 30 29 29 29 30 31 31 32 32 32 33 30 27 26 24 31 34 32 28 25 30 31 30 29 29 29 29 28 27
19 20 21 22 22 23 24 25 25 26 26 27 28 28 31 30 31 31 31 31 32 32 32 32 32 33 32 27 30 28 31 33 34 34 28 25 30 31 31 30 29 29 29 28 28
19 20 21 22 23 24 24 25 26 26 26 26 28 28 31 32 32 32 31 31 32 33 34 34 34 35 33 34 33 34 35 34 34 35 33 22 32 32 32 31 30 30 29 28 28
19 20 21 22 23 24 25 25 25 24 25 30 31 31 33 33 33 33 32 32 32 33 34 35 36 35 36 37 37 37 36 36 36 36 35 32 33 32 32 32 31 30 30 29 28
19 19 21 22 23 24 25 25 26 26 27 29 30 31 32 33 33 33 33 33 33 33 35 35 35 37 38 37 37 37 36 36 36 36 35 35 34 34 34 33 32 32 31 30 29
18 19 21 22 23 24 25 26 25 26 28 30 31 32 32 33 33 33 33 33 33 34 35 35 36 38 37 37 36 37 37 36 36 36 36 36 34 34 34 34 33 33 32 31 30
18 19 20 22 23 24 26 25 26 26 28 32 33 33 33 33 33 33 34 34 34 34 35 35 37 37 37 36 37 36 38 37 37 36 33 36 32 34 34 34 34 34 33 32 31
18 19 20 21 22 24 25 25 25 27 28 36 35 34 33 33 33 33 33 34 34 34 35 34 36 36 36 36 37 36 37 37 37 37 36 35 32 33 36 34 34 34 34 34 32
18 19 20 20 22 23 24 25 26 28 29 34 34 34 34 34 34 34 34 34 34 35 35 35 36 37 37 37 37 37 36 37 37 36 35 37 36 35 36 36 36 35 35 35 33
19 20 20 21 22 23 23 25 27 28 34 34 35 35 34 34 34 35 34 35 33 32 33 35 35 37 37 36 37 37 36 34 34 35 35 38 37 36 38 38 38 37 36 35 35
19 20 21 21 20 22 23 27 26 31 32 35 35 35 34 35 35 35 34 34 35 34 34 34 33 36 37 36 35 36 36 35 33 34 34 37 36 37 39 38 38 38 37 36 35
20 20 21 22 22 21 24 26 28 31 33 33 34 34 34 35 35 35 34 34 35 35 33 33 34 38 38 37 37 35 35 38 36 37 36 36 37 38 38 38 38 38 37 36 36
20 20 24 22 22 22 25 24 29 31 32 33 31 32 31 34 35 35 35 36 35 36 37 35 33 36 38 38 37 36 37 35 37 33 33 36 36 36 36 37 37 38 37 37 36
20 22 23 22 22 24 25 27 29 30 31 31 30 30 31 32 33 34 35 36 36 36 36 36 35 35 37 37 36 36 35 36 36 36 35 34 36 40 37 37 37 38 37 37 36
18 25 23 22 24 26 27 28 28 29 30 30 31 31 30 31 31 33 33 34 36 37 35 36 35 35 35 37 39 38 36 36 35 34 36 36 35 39 38 39 38 38 37 37 36
18 23 24 23 25 27 28 29 29 29 29 28 29 30 30 30 29 31 32 33 34 35 35 36 35 34 34 36 37 37 37 37 37 37 35 35 36 40 39 39 38 38 38 35 35
18 25 25 24 25 26 26 26 27 27 27 27 28 28 28 28 30 29 30 32 33 34 31 33 34 34 33 34 36 36 36 36 36 36 36 36 37 39 38 38 38 38 37 35 34
20 23 22 23 24 24 25 25 24 25 26 26 26 27 27 27 28 28 30 31 32 33 33 33 32 33 34 35 36 36 37 36 36 36 36 37 37 39 37 38 38 38 36 34 33
17 18 18 19 21 23 23 24 25 26 26 26 26 27 27 27 27 28 29 30 30 32 32 33 31 32 32 34 35 35 36 37 36 36 36 36 36 39 40 38 38 38 36 34 33
14 14 16 18 21 23 24 24 24 24 23 24 25 25 25 26 27 27 27 28 30 30 30 31 31 32 31 33 34 33 35 36 37 37 37 35 37 38 38 39 38 37 37 34 33
Height
1541 1541 1540 1538 1536 1535 1534 1534 1533 1531 1529 1528 1526 1523 1521 1518 1518 1516 1516 1517 1517 1523 1530 1532 1530 1518 1513 1517 1518 1515 1518 1501 1496 1502 1506 1505 1510 1515 1519 1520 1522 1527 1534 1543 1548
1542 1540 1540 1538 1537 1535 1534 1534 1533 1531 1530 1528 1526 1524 1521 1518 1516 1514 1517 1515 1518 1526 1535 1534 1529 1523 1511 1513 1514 1508 1498 1494 1490 1496 1500 1505 1511 1512 1518 1521 1528 1532 1539 1545 1548
1543 1541 1539 1538 1537 1535 1534 1533 1532 1531 1529 1528 1526 1524 1521 1518 1517 1516 1516 1515 1518 1526 1525 1531 1532 1526 1528 1513 1496 1496 1500 1493 1494 1497 1502 1507 1512 1511 1517 1524 1532 1537 1542 1546 1548
1544 1542 1539 1538 1537 1535 1534 1533 1532 1530 1529 1528 1526 1523 1521 1519 1515 1514 1515 1515 1518 1521 1527 1517 1517 1536 1519 1500 1504 1500 1500 1502 1503 1504 1504 1507 1510 1513 1514 1523 1532 1538 1543 1546 1547
1544 1542 1540 1537 1536 1535 1533 1532 1531 1530 1529 1527 1526 1524 1522 1519 1515 1514 1514 1514 1515 1516 1513 1516 1513 1519 1509 1502 1504 1499 1502 1507 1506 1507 1508 1509 1512 1517 1520 1526 1533 1539 1543 1546 1546
1544 1542 1540 1538 1535 1533 1532 1531 1530 1529 1528 1527 1526 1524 1522 1519 1514 1514 1514 1513 1513 1514 1511 1509 1506 1501 1504 1500 1503 1504 1504 1505 1506 1507 1507 1510 1513 1517 1524 1528 1534 1539 1541 1543 1546
1544 1541 1539 1537 1534 1532 1530 1529 1528 1527 1527 1527 1526 1524 1522 1519 1515 1513 1513 1513 1513 1516 1514 1510 1507 1500 1491 1502 1508 1506 1513 1504 1505 1506 1514 1519 1511 1515 1522 1528 1533 1535 1538 1541 1545
1544 1541 1538 1536 1533 1531 1528 1527 1526 1526 1526 1526 1526 1525 1521 1517 1517 1516 1516 1516 1515 1514 1513 1510 1508 1506 1505 1515 1522 1527 1525 1513 1502 1506 1519 1523 1523 1516 1522 1526 1530 1532 1535 1540 1544
1544 1540 1537 1534 1532 1529 1527 1525 1524 1524 1524 1524 1526 1525 1519 1515 1516 1515 1516 1515 1512 1511 1509 1508 1507 1504 1506 1513 1520 1529 1519 1503 1499 1495 1509 1522 1515 1514 1519 1523 1528 1531 1534 1538 1542
1543 1540 1536 1533 1530 1527 1525 1524 1522 1522 1522 1522 1523 1527 1515 1512 1511 1512 1513 1514 1512 1509 1505 1502 1499 1493 1498 1498 1510 1500 1494 1496 1497 1492 1496 1528 1508 1510 1514 1519 1524 1529 1533 1537 1541
1542 1539 1536 1532 1529 1526 1524 1522 1523 1521 1521 1514 1510 1509 1506 1506 1507 1508 1510 1512 1511 1509 1504 1494 1493 1497 1487 1483 1483 1483 1483 1486 1484 1485 1487 1494 1500 1505 1508 1512 1518 1525 1528 1533 1537
1541 1538 1534 1531 1529 1527 1525 1524 1524 1525 1517 1510 1507 1507 1505 1503 1504 1507 1509 1510 1508 1506 1499 1496 1493 1482 1480 1483 1483 1482 1485 1485 1483 1483 1487 1489 1496 1497 1502 1506 1511 1517 1522 1527 1532
1541 1537 1533 1531 1528 1528 1526 1526 1525 1524 1516 1502 1500 1499 1502 1503 1503 1501 1503 1504 1505 1502 1497 1496 1487 1481 1483 1484 1485 1478 1482 1485 1486 1483 1482 1486 1496 1495 1496 1502 1506 1511 1516 1521 1526
1540 1537 1533 1530 1530 1528 1527 1526 1525 1524 1516 1490 1485 1489 1496 1499 1497 1500 1497 1500 1500 1500 1496 1490 1482 1481 1481 1488 1482 1487 1470 1475 1479 1487 1511 1483 1519 1496 1491 1497 1502 1505 1509 1514 1520
1539 1536 1533 1531 1528 1527 1528 1527 1525 1524 1535 1468 1475 1483 1489 1491 1494 1493 1496 1494 1494 1495 1495 1496 1486 1482 1483 1486 1478 1483 1476 1476 1476 1478 1479 1485 1508 1494 1483 1492 1494 1498 1501 1504 1511
1536 1534 1532 1531 1529 1528 1527 1526 1526 1526 1523 1476 1476 1482 1486 1484 1486 1488 1488 1492 1490 1490 1488 1485 1481 1478 1475 1477 1477 1477 1483 1477 1474 1478 1495 1465 1477 1485 1480 1480 1481 1487 1492 1496 1502
1533 1531 1530 1529 1528 1529 1527 1527 1525 1524 1480 1479 1475 1474 1478 1481 1482 1483 1484 1482 1492 1503 1499 1485 1484 1475 1474 1479 1474 1478 1489 1506 1509 1501 1494 1458 1475 1474 1465 1465 1470 1477 1484 1491 1496
1530 1528 1527 1526 1526 1528 1528 1525 1529 1494 1487 1470 1473 1473 1477 1473 1475 1477 1483 1483 1475 1483 1488 1492 1498 1476 1470 1478 1484 1479 1483 1497 1515 1502 1501 1463 1486 1469 1456 1464 1467 1470 1478 1484 1490
1527 1526 1525 1525 1528 1527 1529 1523 1510 1494 1481 1478 1474 1476 1478 1469 1472 1469 1474 1477 1470 1472 1491 1490 1483 1458 1461 1467 1474 1480 1485 1464 1477 1465 1482 1472 1461 1454 1456 1462 1469 1473 1478 1483 1486
1526 1524 1523 1525 1526 1527 1524 1520 1501 1492 1487 1485 1495 1486 1489 1473 1468 1468 1468 1463 1468 1464 1464 1471 1488 1459 1453 1457 1463 1469 1466 1484 1471 1509 1510 1474 1468 1467 1458 1460 1464 1469 1474 1480 1485
1527 1523 1522 1524 1525 1525 1520 1509 1502 1497 1494 1493 1495 1495 1492 1484 1470 1463 1460 1458 1457 1460 1461 1461 1467 1470 1456 1456 1464 1469 1475 1471 1469 1470 1493 1496 1471 1425 1445 1451 1459 1464 1469 1476 1484
1530 1519 1522 1524 1523 1515 1511 1504 1502 1498 1495 1493 1491 1489 1492 1487 1481 1470 1468 1459 1455 1453 1458 1455 1460 1469 1463 1448 1442 1448 1459 1463 1482 1489 1469 1466 1474 1438 1448 1451 1456 1460 1465 1472 1480
1532 1524 1520 1522 1517 1506 1499 1496 1496 1497 1498 1500 1497 1492 1489 1489 1493 1480 1472 1465 1461 1458 1456 1451 1458 1473 1467 1454 1441 1445 1451 1453 1455 1458 1471 1480 1467 1434 1438 1444 1451 1456 1460 1468 1477
1535 1519 1516 1517 1515 1512 1507 1504 1502 1501 1503 1501 1498 1497 1496 1493 1486 1484 1479 1470 1465 1459 1459 1458 1454 1458 1470 1464 1446 1448 1448 1450 1454 1464 1463 1461 1452 1437 1436 1442 1446 1452 1456 1465 1474
1538 1529 1532 1524 1517 1515 1515 1514 1512 1510 1505 1502 1500 1497 1494 1495 1490 1484 1474 1469 1466 1461 1458 1458 1465 1456 1449 1444 1441 1437 1437 1440 1450 1448 1457 1448 1445 1434 1433 1444 1445 1447 1453 1461 1472
1546 1546 1540 1535 1527 1520 1513 1510 1507 1502 1501 1498 1496 1491 1490 1489 1486 1485 1479 1473 1469 1464 1460 1456 1464 1461 1460 1446 1438 1440 1431 1428 1435 1442 1447 1446 1443 1427 1428 1430 1437 1442 1449 1458 1467
1552 1550 1546 1536 1528 1521 1512 1508 1507 1506 1506 1503 1500 1496 1492 1488 1485 1481 1478 1473 1468 1468 1464 1460 1457 1456 1463 1450 1445 1449 1432 1427 1424 1423 1430 1447 1437 1428 1427 1427 1431 1438 1446 1453 1460
Wind_Speed
9 8 7 7 7 7 6 6 6 6 7 7 8 10 11 11 3 2 2 5 4 5 5 7 8 18 19 21 20 6 2 10 11 17 13 14 13 14 15 13 5 21 24 23 21
11 10 8 7 7 8 7 7 6 7 7 8 9 10 11 12 3 4 6 5 3 5 16 10 12 9 11 16 28 14 9 10 17 15 13 16 15 14 13 17 19 25 22 21 20
11 11 10 8 8 8 9 8 8 7 8 8 9 11 11 13 8 4 0 1 3 11 23 5 11 18 8 29 12 13 11 12 18 16 18 13 14 9 19 14 16 21 22 21 18
11 12 13 11 9 8 9 9 9 9 8 8 9 11 12 13 1 2 1 0 5 9 20 35 26 15 13 9 15 13 14 15 15 12 13 11 13 6 17 19 19 20 20 19 17
13 12 12 13 12 10 9 10 9 9 9 8 9 11 14 8 1 1 3 3 3 3 13 24 31 27 2 5 4 14 15 14 8 17 13 10 13 9 16 20 19 20 19 17 14
14 14 13 12 13 12 11 10 10 9 9 9 9 11 11 17 4 1 4 4 5 6 13 13 17 16 7 8 5 23 10 11 13 11 15 13 13 13 14 19 20 19 17 17 15
15 15 14 14 13 13 12 11 10 10 9 8 8 10 11 10 3 2 4 4 5 9 12 12 13 20 24 18 17 10 8 2 12 15 7 15 13 12 18 20 19 20 18 17 14
16 16 16 14 14 14 13 11 9 9 9 8 7 7 9 3 5 7 8 8 9 10 12 13 13 14 13 4 11 5 5 5 12 21 11 10 11 14 19 20 18 18 18 17 18
16 16 16 16 14 13 12 10 8 8 8 7 3 6 17 9 11 12 12 11 10 12 14 15 14 12 14 8 13 11 11 9 11 22 14 15 17 19 19 20 17 17 16 17 17
17 16 16 15 15 12 10 8 6 6 7 7 9 8 18 16 14 15 14 12 13 15 17 19 18 15 11 10 5 3 7 4 12 7 10 14 13 17 20 20 18 18 18 17 16
18 17 15 14 13 10 6 5 6 5 13 15 13 18 27 21 13 16 16 15 14 17 15 21 14 6 19 0 5 6 8 11 12 6 8 16 16 16 18 19 20 19 20 20 19
19 18 15 11 8 4 6 5 5 8 12 20 27 23 21 16 13 18 17 17 16 15 18 17 14 13 8 6 9 5 5 3 6 6 7 4 16 17 17 16 19 20 21 22 21
20 19 15 9 3 5 6 6 7 10 10 23 26 29 26 18 18 19 22 19 21 19 19 19 21 6 2 6 12 11 6 10 12 7 6 5 1 15 17 16 18 20 20 20 22
19 18 16 8 3 5 3 5 8 8 6 17 22 30 28 27 27 28 26 24 21 23 22 23 21 18 13 10 15 14 8 4 2 11 9 14 8 8 17 16 15 17 21 21 22
18 17 12 11 8 4 7 8 9 5 6 4 17 15 20 32 30 24 26 30 19 20 21 21 23 21 14 13 18 15 7 11 12 13 13 14 4 6 17 16 19 19 23 24 26
16 16 11 7 6 6 10 9 6 6 10 5 9 9 12 22 27 30 27 29 27 18 23 23 26 22 16 14 17 7 12 12 8 13 13 12 6 10 16 17 19 22 21 20 27
15 13 11 6 3 8 9 6 6 9 12 15 10 12 13 16 18 20 23 21 17 18 21 21 22 22 21 11 17 7 13 11 11 11 11 14 3 9 13 13 16 22 19 21 22
14 10 9 7 9 8 6 8 10 10 20 11 1 10 11 13 17 21 22 24 20 22 19 17 18 23 16 16 17 14 16 14 13 10 6 7 4 10 14 11 6 17 21 21 20
12 6 4 2 4 6 9 10 13 14 13 16 20 9 12 15 15 17 22 23 24 21 21 19 23 18 22 22 20 20 17 21 20 19 9 16 10 12 17 13 13 11 13 12 11
13 6 8 5 4 5 9 14 20 21 23 14 13 15 19 20 17 16 18 20 25 26 23 19 22 25 17 24 24 23 18 17 11 14 15 13 14 9 17 15 15 14 18 13 10
7 6 5 1 2 9 9 14 16 22 21 17 15 17 20 24 23 21 14 18 17 23 24 23 20 21 21 19 22 19 18 20 17 14 11 12 9 9 18 17 16 16 20 19 15
5 5 2 2 9 11 10 16 19 18 22 17 19 16 17 22 23 21 19 19 18 19 22 23 22 19 23 23 21 22 23 22 14 16 15 14 2 13 15 17 20 20 20 23 16
8 11 3 2 7 7 12 13 11 12 13 15 20 20 19 18 22 22 22 26 28 23 15 16 17 18 22 19 24 23 20 17 20 17 18 13 9 14 17 16 21 18 21 26 20
8 4 1 4 11 10 10 11 13 15 15 19 17 21 20 22 22 22 24 27 23 25 13 15 16 22 16 21 20 19 23 23 24 17 16 18 18 16 15 13 16 19 27 28 22
5 7 14 7 14 20 16 15 16 17 19 19 16 19 19 20 21 23 23 21 25 29 22 14 17 20 23 25 26 28 23 27 25 21 20 17 18 19 14 10 14 20 27 30 23
10 11 14 21 20 17 14 15 17 16 15 13 17 16 18 19 20 19 23 23 20 19 20 19 18 21 25 28 24 26 27 22 24 24 22 24 25 22 12 24 19 20 25 29 25
12 12 10 13 17 13 12 13 16 18 19 22 21 19 20 19 26 27 27 29 22 22 25 22 21 19 21 25 26 25 27 25 21 26 24 21 22 20 19 3 22 22 17 29 28
Wind_Direction
6 11 4 351 341 337 333 329 322 316 323 329 333 337 338 341 345 107 323 266 255 198 164 45 338 313 264 231 202 184 217 94 112 96 117 119 92 100 120 138 135 116 136 139 146
3 359 360 349 335 327 324 318 313 311 317 323 328 332 338 336 314 261 272 265 246 169 108 72 62 123 293 263 252 210 57 35 90 107 107 101 111 135 113 105 91 104 122 139 149
2 353 348 345 334 323 319 314 308 306 309 316 323 326 328 331 315 118 353 80 87 136 144 192 158 198 251 268 83 73 61 51 78 109 93 114 132 122 128 124 129 131 139 146 152
4 353 344 339 332 321 311 307 303 301 302 308 313 314 319 314 346 114 335 278 118 152 181 175 220 197 248 18 347 73 81 94 97 109 124 100 113 77 117 128 135 141 146 149 162
359 354 345 336 330 321 309 302 295 292 293 298 302 305 315 292 166 196 293 284 152 244 260 196 199 203 151 218 330 85 85 83 115 88 114 122 89 100 103 119 133 142 150 155 166
354 351 344 336 328 321 311 300 293 285 284 289 292 300 311 282 233 266 285 291 199 306 315 1 350 333 153 169 67 29 20 130 107 122 112 109 133 122 132 129 136 147 158 166 153
350 346 343 336 328 320 312 302 291 284 278 281 288 300 284 287 239 260 253 256 287 294 324 347 337 326 21 61 72 125 330 52 141 128 25 345 140 123 146 139 148 157 167 152 161
347 344 340 336 329 321 311 302 292 283 278 271 280 297 270 206 218 215 231 254 278 289 296 309 309 302 70 96 82 314 340 210 128 121 92 345 120 136 153 152 164 164 156 154 152
345 341 338 335 330 324 316 303 288 279 273 267 263 278 265 228 224 232 231 254 269 286 285 286 296 286 135 137 228 161 241 153 152 152 145 171 141 149 160 163 173 167 167 167 167
344 340 336 334 331 329 324 312 290 271 256 247 235 262 252 236 233 225 229 248 274 291 285 266 256 246 151 222 347 140 181 162 153 162 126 4 128 153 170 164 174 180 183 182 184
340 339 335 334 333 336 347 322 293 240 219 228 208 220 253 244 260 210 220 235 258 273 277 283 258 270 264 93 346 299 315 119 135 133 294 158 158 157 179 169 174 187 190 188 194
337 337 334 333 339 350 5 320 11 323 293 249 252 253 246 264 204 230 228 224 243 256 263 257 265 276 27 315 286 308 278 113 117 117 207 85 150 162 175 179 179 185 191 193 197
336 335 332 331 360 15 331 314 322 325 274 272 240 234 232 233 236 243 219 224 245 257 251 266 281 261 8 283 286 254 257 224 126 139 281 185 157 160 168 183 182 190 189 198 195
334 336 333 321 356 327 293 315 326 321 279 261 214 229 221 231 232 238 250 218 241 251 260 275 267 272 267 266 280 293 1 311 275 180 233 216 215 203 167 179 186 200 187 191 193
331 330 336 326 305 336 311 313 314 283 279 87 177 188 220 218 233 232 233 250 230 256 245 252 268 270 261 269 272 305 344 279 249 269 239 220 190 226 188 182 182 205 194 194 188
327 324 330 321 285 299 313 306 293 236 247 167 144 201 227 229 226 240 218 225 250 240 257 268 263 266 278 232 251 272 298 280 274 255 272 238 158 180 182 189 183 186 205 203 186
321 314 307 270 217 297 312 283 231 243 230 265 211 200 212 237 226 231 246 220 217 234 249 244 252 259 257 269 262 197 252 252 228 234 249 114 161 146 140 175 184 180 182 192 194
318 309 305 285 252 301 288 241 243 255 240 272 180 287 277 223 229 220 230 246 209 230 251 237 239 236 233 224 251 230 239 257 254 254 1 112 238 160 143 139 79 178 173 184 193
327 323 305 348 281 258 245 230 234 242 294 332 328 276 264 262 255 234 219 237 239 219 238 253 261 243 216 225 218 249 254 257 280 292 251 218 129 115 135 158 152 185 147 186 173
337 302 240 219 282 239 243 254 276 285 311 317 271 293 301 292 266 220 249 224 241 247 238 237 258 270 241 210 227 232 253 256 250 274 288 288 175 195 168 166 166 183 156 173 149
325 262 152 249 257 237 246 258 263 271 279 292 285 286 282 288 297 293 251 242 245 239 247 255 241 255 264 256 213 220 234 255 276 268 251 265 268 210 161 167 168 187 174 157 160
305 287 146 258 251 237 247 250 261 279 289 305 292 284 272 289 296 296 292 298 288 280 235 241 254 251 247 261 257 223 222 230 247 251 272 276 144 128 164 180 176 192 176 160 152
317 294 232 252 266 283 301 299 252 278 309 292 286 286 296 282 278 286 289 290 296 297 299 270 246 252 252 247 255 220 232 250 237 245 263 264 250 183 173 182 179 196 177 138 144
312 308 218 263 269 269 296 299 306 313 293 283 281 281 282 277 279 272 267 277 283 282 333 315 269 266 243 246 258 226 209 228 245 246 238 249 258 278 150 167 178 195 158 147 152
325 357 338 303 323 338 326 311 301 292 290 288 280 282 271 270 271 272 275 271 272 281 298 286 273 272 272 270 257 263 224 215 232 254 260 267 257 251 165 187 209 200 161 148 164
3 345 327 297 294 294 284 271 274 283 291 288 287 288 276 274 271 275 277 280 280 283 285 271 260 266 271 273 266 260 260 227 218 227 252 266 271 275 251 176 190 194 163 156 169
354 329 309 299 293 290 291 318 313 319 301 299 307 307 294 292 298 300 299 296 287 270 269 284 277 242 245 254 259 255 253 260 256 221 217 227 244 263 277 241 176 180 183 166 170